Content
SEND FEEDBACK

Daily
Averages
Monthly
Summary
United States of America

GRASS VALLEY, CALIFORNIA


Home > North America > United States > California
Elevation: 2628 feet     Latitude: 39 16N     Longitude: 121 02W

WEATHER
 
SELECT A DAY
Number of Records: 71,736;   Date Range: 9/21/11 - 12/27/14
 
SHARE

PRINT THIS DATA

[ ← Previous Day ]
WEATHER ALMANAC - OCTOBER 15, 2013
[ Next Day → ]
[ °C ]   °F
Weather ElementAverageHighLow
Temperature66.7 °F73.4 °F (1:35 pm)59 °F (8:35 am)
Dewpoint16.9 °F26.6 °F (5:55 pm)6.8 °F (11:15 pm)
Humidity15.4 %25 % (8:55 am)10 % (1:35 pm)
Barometer30.07 in30.11 in (8:35 am)30.05 in (2:55 pm)
Wind Speed6.4 mph11.5 mph (9:10 am)
Wind Gust92.1 mph (8:55 am)
Weather ElementAverage
Visibility9.8 mi
Wind DirectionE (88.9 °)

Weather ElementTotal
Precipitation0.18 in
Cooling Degree Days1.2 (Base 65)
Growing Degree Days16.2 (Base 50)
Averaged from 47 records on October 15, 2013
WEATHER CONDITIONS BREAKOUT
WIND DIRECTION BREAKOUT
WEATHER BY HOUR - OCTOBER 15, 2013
[ °C ]   °F
Local TimeTemperatureDewpointHumidityBarometerVisibilityWind DirectionWind SpeedGust SpeedPrecipitationEventsConditions
8:35 AM59.0 °F21.2 °F23 %30.11 in1.0 miEast (90°)9.2 mphClear
8:55 AM59.0 °F23.0 °F25 %30.11 inEast (100°)9.2 mph92.1 mphClear
9:10 AM60.8 °F23.0 °F23 %30.11 inEast (80°)11.5 mph0.06 inClear
9:35 AM62.6 °F23.0 °F22 %30.10 in10.0 miEast (100°)6.9 mph0.06 inClear
9:50 AM62.6 °F24.8 °F24 %30.11 in10.0 miESE (120°)4.6 mph0.06 inClear
10:15 AM64.4 °F24.8 °F22 %30.11 in10.0 miEast (90°)4.6 mph
10:35 AM66.2 °F24.8 °F21 %30.11 in10.0 miCalmClear
10:55 AM66.2 °F23.0 °F19 %30.10 in10.0 miSSW (200°)3.5 mphClear
11:15 AM66.2 °F23.0 °F19 %30.10 in10.0 miCalmClear
11:35 AM68.0 °F24.8 °F20 %30.10 in10.0 miWNW (300°)3.5 mphClear
11:55 AM69.8 °F15.8 °F13 %30.10 in10.0 miCalmClear
12:15 PM71.6 °F14.0 °F11 %30.10 in10.0 miESE (110°)5.8 mphClear
12:35 PM71.6 °F14.0 °F11 %30.09 in10.0 miENE (70°)8.1 mphClear
12:55 PM71.6 °F14.0 °F11 %30.09 in10.0 miESE (120°)5.8 mphClear
1:15 PM71.6 °F15.8 °F12 %30.08 in10.0 miEast (90°)5.8 mphClear
1:35 PM73.4 °F12.2 °F10 %30.07 in10.0 miESE (120°)4.6 mphClear
1:55 PM73.4 °F15.8 °F11 %30.07 in10.0 miEast (90°)6.9 mphClear
2:15 PM73.4 °F14.0 °F10 %30.06 in10.0 miESE (120°)5.8 mphClear
2:35 PM73.4 °F15.8 °F11 %30.06 in10.0 miESE (110°)8.1 mphClear
2:55 PM73.4 °F15.8 °F11 %30.05 in10.0 miSE (130°)4.6 mphClear
3:15 PM73.4 °F14.0 °F10 %30.05 in10.0 miEast (90°)3.5 mphClear
3:35 PM73.4 °F15.8 °F11 %30.05 in10.0 miSE (130°)5.8 mphClear
3:55 PM73.4 °F17.6 °F12 %30.05 in10.0 miEast (90°)6.9 mphClear
4:15 PM73.4 °F15.8 °F11 %30.05 in10.0 miEast (80°)6.9 mphClear
4:35 PM73.4 °F15.8 °F11 %30.05 in10.0 miEast (80°)4.6 mphClear
4:55 PM73.4 °F14.0 °F10 %30.05 in10.0 miCalmClear
5:15 PM71.6 °F24.8 °F17 %30.05 in10.0 miSE (130°)3.5 mphClear
5:35 PM71.6 °F23.0 °F16 %30.05 in10.0 miCalmClear
5:55 PM69.8 °F26.6 °F20 %30.05 in10.0 miCalmClear
6:15 PM68.0 °F19.4 °F16 %30.05 in10.0 miEast (90°)5.8 mphClear
6:35 PM66.2 °F21.2 °F18 %30.06 in10.0 miEast (80°)6.9 mphClear
6:55 PM64.4 °F23.0 °F21 %30.06 in10.0 miENE (70°)8.1 mphClear
7:15 PM64.4 °F23.0 °F21 %30.07 in10.0 miEast (90°)5.8 mphClear
7:35 PM62.6 °F21.2 °F20 %30.07 in10.0 miENE (70°)11.5 mphClear
7:55 PM62.6 °F19.4 °F19 %30.07 in10.0 miENE (60°)9.2 mphClear
8:15 PM62.6 °F15.8 °F16 %30.07 in10.0 miENE (60°)6.9 mphClear
8:35 PM60.8 °F14.0 °F16 %30.06 in10.0 miEast (80°)10.4 mphClear
8:55 PM62.6 °F10.4 °F13 %30.06 in10.0 miEast (90°)10.4 mphClear
9:15 PM60.8 °F10.4 °F14 %30.07 in10.0 miEast (100°)10.4 mph17.3 mphClear
9:35 PM62.6 °F10.4 °F13 %30.07 in10.0 miEast (100°)9.2 mph16.1 mphClear
9:55 PM60.8 °F8.6 °F13 %30.06 in10.0 miEast (90°)11.5 mphClear
10:15 PM60.8 °F8.6 °F13 %30.07 in10.0 miEast (90°)10.4 mphClear
10:35 PM60.8 °F8.6 °F13 %30.07 in10.0 miEast (100°)10.4 mphClear
10:55 PM60.8 °F8.6 °F13 %30.07 in10.0 miEast (100°)10.4 mphClear
11:15 PM60.8 °F6.8 °F12 %30.07 in10.0 miEast (90°)10.4 mphClear
11:35 PM60.8 °F6.8 °F12 %30.08 in10.0 miEast (90°)6.9 mphClear
11:55 PM60.8 °F6.8 °F12 %30.08 in10.0 miEast (90°)6.9 mphClear
Hourly data recorded from KGOO, located miles away from Grass Valley, California







STORIES FROM OUR PARTNERS